DECAYED
Showing default

FLOCK 4Q 10, 58324 (Decayed)

Orbit data source: Space-Track

FLOCK 4Q 10, 58324 was a payload satellite owned by Planet (US) in LEO that was launched on Sat, 11 Nov 2023 UTC via an FALCON 9 launch vehicle from the Air Force Western Test Range (AFWTR). Payload-class satellites include a variety of spacecraft equipped with specific instruments for various scientific and technological missions. These include communications satellites like Starlink; space stations such as the ISS; scientific satellites like the Hubble; Earth observation satellites from companies like Planet Labs, Umbra, and HawkEye 360; GPS; miniature CubeSats for education and research; and military/defense satellites.

Not visible in the next 10 days
Identifier
58324, 2023-174BW
Orbit
Decayed
Country
Flag of USUS
Related business
Manufacturer
Planet
Mission
Decayed Commercial Imaging
Bus & Motor
CUBESAT 3U, Unknown motor
Mass
5.7 kg wet, 5.7 kg dry
Launch date (UTC)
2023-11-11 (2 years ago)
Launch vehicle
FALCON 9
Launch site
Air Force Western Test Range (AFWTR)
Object type
Payload
Rocket body
Debris
Shape & HBR
Box + 2 Pan, 1.0 m
Radar Cross Section
0.072 m², Medium (>0.1 m² and < 1m²)

Expand to show TLE details & history
Last TLE update: 5 months ago

TLE from 5 months ago
0 FLOCK 4Q 10
1 58324U 23174BW  25127.94234822  .09725640  24997-5  14807-2 0  9991
2 58324  97.3822 212.2359 0015651 248.3526 111.6104 16.33846744 83581
Epoch: 2025-05-07T22:36Z
TLE epoch observation values (Epoch: 2025-05-07T22:36:58.886Z)
Latitude
0.00004°
Longitude
6.97058°
Altitude
189.262 km
Speed
7.79 km/s
True Right ascension
14h 08m 56s
True Declination
0° 00' 00"
Sunlit
Object was in full shadow at epoch
Visualization orbit readout
Latitude
Unknown
Longitude
Unknown
Altitude
Unknown
Speed
Unknown
Apparent Right ascension
Unknown
Apparent Declination
Unknown
Sunlit
N/A
Visualization observer readout
Local Sidereal Time
10:35:40
Azimuth
Unknown
Elevation
Unknown
Doppler factor
Unknown
Orbital elements
Apogee altitude
189.3 km
Perigee altitude
168.775 km
Semi-major axis
6,557.174 km
Eccentricity
0.00157
Inclination
97.3822°
RAAN
212.2359°
Arg. of periapsis
248.3526°
True anomaly
111.77702°
Mean anomaly
111.6104°
Eccentric anomaly
111.69372°
Mean motion
4.0876 °/min
Orbital period
88.07 mins
BSTAR
0.0014807
Loading maneuver chart data...
Computing Atmospheric mass density...
Loading historical data...
Loading historical data...
Loading historical data...
Loading historical data...
Loading historical data...
Loading historical data...
Loading historical data...

Documentation

Showing up to 5 results
|